Midland, TX

3:03 AM CST on February 22, 2017 (GMT -0600)
Midland International

Weather History for KMAF - April, 2013

Change the Weather History Date:

Sunday, April 21, 2013

  Actual Average Record
Temperature  
Mean Temperature 64 °F 66 °F  
Max Temperature 85 °F 81 °F 101 °F (1989)
Min Temperature 43 °F 51 °F 35 °F (1933)
Degree Days  
Heating Degree Days 1 3  
Month to date heating degree days 101 95  
Since 1 July heating degree days 2311 2639  
Cooling Degree Days 0 4  
Month to date cooling degree days 71 49  
Year to date cooling degree days 106 67  
Growing Degree Days 14 (Base 50)    
Moisture  
Dew Point 24 °F    
Average Humidity 29    
Maximum Humidity 50    
Minimum Humidity 7    
Precipitation  
Precipitation 0.00 in 0.02 in 0.45 in (1987)
Month to date precipitation T 0.44  
Year to date precipitation 1.53 2.31  
Snow  
Snow 0.00 in - - ()
Month to date snowfall 0.0  
Since 1 July snowfall 1.0  
Snow Depth 0.00 in    
Sea Level Pressure  
Sea Level Pressure 29.88 in    
Wind  
Wind Speed 7 mph (SW)    
Max Wind Speed 20 mph    
Max Gust Speed 33 mph    
Visibility 10 miles    
Events      
T = Trace of Precipitation, MM = Missing Value Source: NWS Daily Summary

Daily Weather History Graph

Daily Weather History Graph

Search for Another Location

Airport or City:

Trip Planner

Search our weather history database for the weather conditions in past years. The results will help you decide how hot, cold, wet, or windy it might be!

Date:

Astronomy

Apr. 21, 2013 Rise Set
Actual Time 7:12 AM CDT 8:22 PM CDT
Civil Twilight 6:47 AM CDT 8:47 PM CDT
Nautical Twilight 6:17 AM CDT 9:18 PM CDT
Astronomical Twilight 5:46 AM CDT 9:49 PM CDT
Moon 4:23 PM CDT (4/21) 4:20 AM CDT (4/21)
Length of Visible Light 14h 00m
Length of Day
13h 09m
Waxing Gibbous, 80% of the Moon is Illuminated
Apr 21
Waxing Gibbous
Apr 25
Full
May 2
Last Quarter
May 9
New
May 17
First Quarter

Hourly Weather History & Observations

Time (CDT) Temp. Dew Point Humidity Pressure Visibility Wind Dir Wind Speed Gust Speed Precip Events Conditions
12:53 AM 62.1 °F 25.0 °F 24% 29.81 in 10.0 mi South 10.4 mph - N/A   Clear
1:53 AM 61.0 °F 26.1 °F 26% 29.81 in 10.0 mi South 13.8 mph - N/A   Clear
2:53 AM 60.1 °F 28.0 °F 30% 29.81 in 10.0 mi South 10.4 mph - N/A   Clear
3:53 AM 57.0 °F 28.9 °F 34% 29.83 in 10.0 mi SSW 5.8 mph - N/A   Clear
4:53 AM 48.0 °F 28.0 °F 46% 29.85 in 10.0 mi Calm Calm - N/A   Clear
5:53 AM 48.0 °F 28.0 °F 46% 29.87 in 10.0 mi Calm Calm - N/A   Clear
6:53 AM 44.1 °F 27.0 °F 51% 29.91 in 10.0 mi Calm Calm - N/A   Clear
7:53 AM 51.1 °F 33.1 °F 50% 29.92 in 10.0 mi South 5.8 mph - N/A   Clear
8:53 AM 55.9 °F 35.1 °F 45% 29.95 in 10.0 mi South 5.8 mph - N/A   Clear
9:53 AM 60.1 °F 35.1 °F 39% 29.96 in 10.0 mi SW 6.9 mph - N/A   Clear
10:53 AM 64.9 °F 34.0 °F 32% 29.97 in 10.0 mi WSW 3.5 mph - N/A   Clear
11:53 AM 71.1 °F 33.1 °F 25% 29.96 in 10.0 mi WSW 4.6 mph - N/A   Clear
12:53 PM 75.9 °F 30.0 °F 19% 29.94 in 10.0 mi Variable 3.5 mph - N/A   Clear
1:53 PM 80.1 °F 24.1 °F 13% 29.90 in 10.0 mi Variable 6.9 mph - N/A   Clear
2:53 PM 82.0 °F 18.0 °F 9% 29.88 in 10.0 mi WNW 10.4 mph 18.4 mph N/A   Clear
3:53 PM 84.0 °F 17.1 °F 8% 29.85 in 10.0 mi West 8.1 mph 24.2 mph N/A   Clear
4:53 PM 84.0 °F 14.0 °F 7% 29.86 in 10.0 mi West 10.4 mph 20.7 mph N/A   Clear
5:53 PM 84.9 °F 12.0 °F 7% 29.84 in 10.0 mi NW 16.1 mph 20.7 mph N/A   Clear
6:53 PM 82.9 °F 14.0 °F 8% 29.85 in 10.0 mi West 9.2 mph - N/A   Clear
7:53 PM 81.0 °F 14.0 °F 8% 29.85 in 10.0 mi WSW 8.1 mph - N/A   Clear
8:53 PM 75.0 °F 14.0 °F 10% 29.86 in 10.0 mi Calm Calm - N/A   Clear
9:53 PM 73.0 °F 15.1 °F 11% 29.87 in 10.0 mi Calm Calm - N/A   Clear
10:53 PM 66.0 °F 16.0 °F 15% 29.89 in 10.0 mi SSE 10.4 mph - N/A   Clear
11:53 PM 69.1 °F 32.0 °F 25% 29.88 in 10.0 mi South 10.4 mph - N/A   Clear